User: anonymous
Location: Plum
(40.5000°N, 79.7500°W)
Time: 18:18:32
(UTC-04:00)
Language:

MOZ.5/SAFIR/RUBIN 5/SL-8 - Orbit

View from above orbital plane
View from above orbital plane
View from above satellite
View from above satellite

Ground track
Ground track

The orbit data is extracted from the following two-line orbital elements,

1 28898U 05043G   14110.17176190  .00000817  00000-0  18116-3 0  7934
2 28898 097.8385 302.9621 0019604 214.7184 261.2715 14.59424587451460
Epoch (UTC): 20 April 2014 04:07:20
Eccentricity: 0.0019604
inclination: 97.8385°
perigee height: 681 km
apogee height: 709 km
right ascension of ascending node: 302.9621°
argument of perigee: 214.7184°
revolutions per day: 14.59424587
mean anomaly at epoch: 261.2715°
orbit number at epoch: 45146

The dashed part of the orbit path shows where the satellite is in the earth's shadow,  

DLR